TimeCET,TemperatureF,Dew PointF,Humidity,Sea Level PressureIn,VisibilityMPH,Wind Direction,Wind SpeedMPH,Gust SpeedMPH,PrecipitationIn,Events,Conditions,WindDirDegrees,DateUTC
12:55 AM,48.2,46.4,93,30.24,-9999.0,Calm,Calm,-,N/A,,Clear,0,2013-01-07 23:55:00
1:00 AM,48,46,91,30.25,7,Calm,Calm,,,,,,2013-01-08 00:00:00
1:55 AM,44.6,42.8,93,30.24,-9999.0,Calm,Calm,-,N/A,,Clear,0,2013-01-08 00:55:00
2:55 AM,44.6,42.8,93,30.24,-9999.0,Calm,Calm,-,N/A,,Clear,0,2013-01-08 01:55:00
3:55 AM,46.4,44.6,93,30.24,-9999.0,Calm,Calm,-,N/A,,Clear,0,2013-01-08 02:55:00
4:55 AM,46.4,44.6,93,30.24,-9999.0,Calm,Calm,-,N/A,,Clear,0,2013-01-08 03:55:00
5:55 AM,41.0,39.2,93,30.24,-9999.0,Calm,Calm,-,N/A,,Clear,0,2013-01-08 04:55:00
6:55 AM,41.0,39.2,93,30.27,-9999.0,Calm,Calm,-,N/A,,Clear,0,2013-01-08 05:55:00
7:55 AM,42.8,41.0,93,30.27,6.2,ESE,1.2,-,N/A,,Partly Cloudy,110,2013-01-08 06:55:00
8:55 AM,50.0,48.2,94,30.30,6.2,Calm,Calm,-,N/A,,Partly Cloudy,0,2013-01-08 07:55:00
9:55 AM,57.2,55.4,94,30.33,-9999.0,Calm,Calm,-,N/A,,Clear,0,2013-01-08 08:55:00
10:55 AM,59.0,51.8,77,30.30,-9999.0,North,2.3,-,N/A,,Clear,360,2013-01-08 09:55:00
11:55 AM,59.0,53.6,82,30.30,-9999.0,WNW,3.5,-,N/A,,Clear,300,2013-01-08 10:55:00
12:55 PM,60.8,50.0,68,30.30,-9999.0,WSW,2.3,-,N/A,,Clear,250,2013-01-08 11:55:00
1:00 PM,61,51,60,30.31,14,WSW,2.3,,,,,250,2013-01-08 12:00:00
1:55 PM,60.8,55.4,82,30.30,6.2,West,5.8,-,N/A,,Partly Cloudy,260,2013-01-08 12:55:00
2:55 PM,59.0,55.4,88,30.27,6.2,WNW,6.9,-,N/A,,Scattered Clouds,290,2013-01-08 13:55:00
3:55 PM,59.0,53.6,82,30.27,6.2,West,6.9,-,N/A,,Scattered Clouds,260,2013-01-08 14:55:00
4:55 PM,57.2,53.6,88,30.30,6.2,WNW,2.3,-,N/A,,Scattered Clouds,300,2013-01-08 15:55:00
5:55 PM,55.4,53.6,94,30.30,6.2,Calm,Calm,-,N/A,,Scattered Clouds,0,2013-01-08 16:55:00
6:55 PM,53.6,51.8,94,30.30,6.2,Calm,Calm,-,N/A,,Scattered Clouds,0,2013-01-08 17:55:00
7:00 PM,54,51,86,30.31,7,Calm,Calm,,,,Mostly Cloudy,,2013-01-08 18:00:00
7:55 PM,53.6,51.8,94,30.30,6.2,ESE,1.2,-,N/A,,Scattered Clouds,120,2013-01-08 18:55:00
8:55 PM,50.0,48.2,94,30.27,6.2,SE,2.3,-,N/A,,Scattered Clouds,140,2013-01-08 19:55:00
9:55 PM,51.8,50.0,94,30.27,6.2,SE,2.3,-,N/A,,Scattered Clouds,140,2013-01-08 20:55:00
10:55 PM,53.6,51.8,94,30.27,6.2,Calm,Calm,-,N/A,,Scattered Clouds,0,2013-01-08 21:55:00
11:55 PM,55.4,53.6,94,30.27,6.2,West,2.3,-,N/A,,Scattered Clouds,260,2013-01-08 22:55:00